virtualACA

Welcome To Calgary International Airport CYYC

Hub Roster

Pilot Domicile Rank
Ethan Title - ACA1641CanadaChief Pilot
Graham Dawson - ACA2317CanadaChief Pilot
Rashaido Brown - ACA3288JamaicaFirst Officer
Brian Robinson - ACA3342United StatesSecond Officer
Ken MacELmon - ACA3352CanadaNew Hire
Alejandro Pedroza - ACA3359CanadaNew Hire

Current Vatsim Weather


CYYC 182000Z 28018G23KT 210V300 30SM FEW075 FEW095 SCT150 SCT170 SCT220 21/02 A2941 RMK CU1AC1AC1AC1CI1 CI TR SLP951 DENSITY ALT 5800FT
Calgary International Airport